Flag for Russia Weather past 2 weeks in Yakutsk, Russia

Now
-33 °F

Fog.


Feels Like: -33 °F
Forecast: -32 / -15 °F
Wind: No wind

Location: Jakutsk

Current Time: Mar 2, 2015 at 9:17:48 AM

Latest Report: Mar 2, 2015 at 8:30 AM


Visibility: N/A

Pressure: 30.18 "Hg

Humidity: 74%

Dew point: -38 °F

Location of YakutskLocation

Historic Weather in Yakutsk — Graph

°F

Yakutsk temperature yesterday

Maximum temperature yesterday: -4 °F (at 2:00 PM)
Minimum temperature yesterday: -22 °F (at 7:30 PM)
Average temperature yesterday: -14 °F

Past Weeks' High & Low Weather Summary

 TemperatureHumidityPressure
High-2 °F (Feb 16, 2:30 PM)84% (Feb 15, 10:30 AM)30.57 "Hg (Feb 15, 10:30 AM)
Low-38 °F (Feb 22, 6:00 AM)60% (Feb 22, 11:00 AM)29.83 "Hg (Feb 28, 4:30 PM)
Average-17 °F76%30.17 "Hg
* Reported Feb 15 8:00 AM — Mar 2 8:00 AM, Yakutsk, Weather by CustomWeather, © 2015

Note: Actual official high and low records may vary slightly from our data, if they occured in-between our weather recording intervals... More about our weather records

Advertising

Yakutsk weather history for previous 24 hours

 ConditionsComfort  
Time TempWeatherWind HumidityBarometerVisibility
8:00 AM
Mon, Mar 2
-35 °FFog.No wind66%30.18 "HgN/A
7:30 AM-38 °FSunny.No wind65%30.18 "Hg10 mi
7:00 AM-33 °FClear.No wind66%30.15 "Hg10 mi
6:30 AM-27 °FClear.1 mph67%30.15 "Hg10 mi
6:00 AM-29 °FClear.No wind74%30.15 "Hg10 mi
5:30 AM-27 °FClear.No wind74%30.15 "Hg10 mi
4:30 AM-27 °FClear.3 mph74%30.12 "Hg10 mi
4:00 AM-27 °FClear.3 mph74%30.12 "Hg10 mi
3:30 AM-27 °FClear.1 mph74%30.12 "Hg10 mi
3:00 AM-29 °FClear.3 mph74%30.12 "Hg10 mi
2:30 AM-27 °FClear.1 mph67%30.12 "Hg10 mi
2:00 AM-27 °FClear.3 mph74%30.09 "Hg10 mi
1:30 AM-27 °FClear.3 mph74%30.09 "Hg10 mi
1:00 AM-27 °FClear.3 mph74%30.09 "Hg10 mi
12:30 AM-24 °FClear.3 mph75%30.09 "Hg10 mi
12:00 AM-22 °FClear.3 mph75%30.09 "Hg10 mi
11:30 PM
Sun, Mar 1
-20 °FClear.3 mph75%30.09 "Hg10 mi
11:00 PM-18 °FClear.6 mph83%30.07 "Hg10 mi
10:30 PM-17 °FClear.3 mph76%30.07 "Hg10 mi
10:00 PM-17 °FClear.3 mph83%30.07 "Hg10 mi
9:30 PM-15 °FClear.6 mph76%30.07 "Hg10 mi
9:00 PM-13 °FClear.3 mph76%30.04 "Hg10 mi
8:30 PM-17 °FClear.3 mph83%30.04 "Hg10 mi
8:00 PM-22 °FClear.No wind75%30.04 "Hg10 mi
7:30 PM-22 °FClear.3 mph75%30.04 "Hg10 mi
7:00 PM-18 °FClear.1 mph75%30.01 "Hg10 mi
6:30 PM-17 °FClear.No wind83%30.01 "Hg10 mi
6:00 PM-13 °FClear.1 mph76%30.01 "Hg10 mi
5:30 PM-9 °FSunny.No wind70%30.01 "Hg10 mi
5:00 PM-6 °FSunny.1 mph64%29.98 "Hg10 mi
4:30 PM-4 °FSunny.1 mph65%29.98 "Hg10 mi
4:00 PM-4 °FSunny.1 mph65%29.98 "Hg10 mi
3:30 PM-4 °FSunny.1 mph71%29.98 "Hg10 mi
3:00 PM-4 °FSunny.3 mph65%29.98 "Hg10 mi
2:30 PM-4 °FSunny.1 mph71%29.98 "Hg10 mi
2:00 PM-4 °FSunny.No wind71%29.98 "Hg10 mi
1:30 PM-6 °FSunny.No wind70%29.98 "Hg10 mi
1:00 PM-6 °FSunny.No wind70%29.98 "Hg10 mi
12:30 PM-9 °FSunny.1 mph77%29.98 "Hg10 mi
12:00 PM-11 °FSunny.1 mph76%29.95 "Hg10 mi
11:30 AM-13 °FSunny.1 mph83%29.95 "Hg10 mi
11:00 AM-11 °FSunny.No wind76%29.95 "Hg10 mi
10:30 AM-11 °FSunny.1 mph76%29.95 "Hg10 mi
10:00 AM-15 °FSunny.3 mph83%29.95 "Hg10 mi
9:30 AM-17 °FSunny.6 mph76%29.95 "Hg10 mi
9:00 AM-18 °FSunny.6 mph75%29.95 "Hg10 mi
Weather by CustomWeather, © 2015

See weather overviewHow to use our weather pages